Terminal Aerodrome Forecast
Issued by NWS Charleston, SC

Home | Current Version | Previous Version | Text Only | Print | Product List | Glossary On
Versions: 1 2 3 4 5 6 7 8 9 10 11 12 13 14 15 16 17 18 19 20 21 22 23 24
000
FTUS42 KCHS 272323
TAFCHS
TAF
KCHS 272323Z 2800/2824 36005KT P6SM FEW060 BKN250
     FM281300 04012G17KT P6SM SCT060 BKN200
     FM282000 10012G18KT P6SM SCT050 BKN150=

USA.gov is the U.S. government's official web portal to all federal, state and local government web resources and services.